DW3738 Weather Reports


time (UTC)temp
F
wind
direction
speed
knots
gust
knots
rain 1hr
in
rain 24hr
in
rain mn
in
humidity
%
barometer
mb
20260508164528 70 294 0.9 0.0 0.00 0.00 0.01 40 1017.2
20260508163025 69 116 1.7 0.0 0.00 0.00 0.01 44 1017.3
20260508161529 69 280 1.7 0.0 0.00 0.00 0.01 40 1017.5
20260508160027 68 80 0.9 0.0 0.00 0.00 0.01 45 1017.7
20260508154516 68 355 0.9 0.0 0.00 0.00 0.01 46 1017.9
20260508153012 67 72 0.9 0.0 0.00 0.00 0.01 49 1018.0
20260508151508 67 95 0.9 0.0 0.00 0.00 0.01 52 1017.9
20260508150008 67 333 0.9 0.0 0.00 0.00 0.01 52 1018.0
20260508144500 66 57 0.9 0.0 0.00 0.00 0.01 52 1018.1
20260508143056 66 355 0.9 0.0 0.00 0.00 0.01 59 1018.1
20260508141553 64 194 0.9 0.0 0.00 0.00 0.01 63 1018.2
20260508140048 63 18 0.9 0.0 0.00 0.00 0.01 63 1018.2
20260508134543 61 330 1.7 0.0 0.00 0.00 0.01 71 1018.1
20260508133055 61 332 0.0 0.0 0.00 0.00 0.01 74 1018.1
20260508131535 59 134 0.0 0.0 0.00 0.00 0.01 81 1018.1
20260508130031 57 157 0.0 0.0 0.00 0.00 0.01 88 1017.9
20260508124528 56 22 0.0 0.0 0.00 0.00 0.01 93 1017.8
20260508123025 54 17 0.0 0.0 0.00 0.00 0.01 97 1017.6
20260508121521 53 5 0.0 0.0 0.00 0.00 0.01 99 1017.4
20260508120020 52 5 0.0 0.0 0.00 0.00 0.01 99 1017.4
20260508114517 51 5 0.0 0.0 0.00 0.00 0.01 100 1017.2
20260508113018 50 114 0.0 0.0 0.00 0.00 0.01 100 1016.8
20260508111512 49 114 0.0 0.0 0.00 0.00 0.01 99 1016.6
20260508110008 49 114 0.0 0.0 0.00 0.00 0.01 99 1016.3
20260508104506 49 114 0.0 0.0 0.00 0.00 0.01 98 1016.2
20260508103008 50 114 0.0 0.0 0.00 0.00 0.01 98 1015.7
20260508101600 50 114 0.0 0.0 0.00 0.00 0.01 99 1015.4
20260508100058 50 114 0.0 0.0 0.00 0.00 0.01 98 1015.5
20260508094606 51 114 0.0 0.0 0.00 0.00 0.01 99 1015.3
20260508093056 51 114 0.0 0.0 0.00 0.00 0.01 99 1015.1
20260508091556 52 114 0.0 0.0 0.00 0.00 0.01 99 1015.1
20260508090053 52 114 0.0 0.0 0.00 0.00 0.01 99 1014.9
20260508084551 52 114 0.0 0.0 0.00 0.00 0.00 99 1015.0
20260508083050 52 114 0.0 0.0 0.00 0.00 0.00 99 1014.7
20260508081602 52 114 0.0 0.0 0.00 0.00 0.00 99 1014.7
20260508080045 52 114 0.0 0.0 0.00 0.00 0.00 99 1014.3
20260508074544 52 114 0.0 0.0 0.00 0.00 0.00 99 1014.3
20260508073044 52 114 0.0 0.0 0.00 0.00 0.00 98 1014.3
20260508071544 53 114 0.0 0.0 0.00 0.00 0.00 99 1014.1
20260508070045 53 114 0.0 0.0 0.00 0.00 0.00 99 1014.1
20260508064541 52 114 0.0 0.0 0.00 0.00 0.00 98 1014.1
20260508063041 53 114 0.0 0.0 0.00 0.00 0.00 98 1014.0
20260508061539 53 114 0.0 0.0 0.00 0.00 0.00 97 1014.3
20260508060036 53 114 0.0 0.0 0.00 0.00 0.00 98 1014.1
20260508054541 54 114 0.0 0.0 0.00 0.00 0.00 97 1014.3
20260508053033 55 114 0.0 0.0 0.00 0.00 0.00 98 1014.0
20260508051532 55 114 0.0 0.0 0.00 0.00 0.00 98 1014.0
20260508050028 55 114 0.0 0.0 0.00 0.00 0.00 98 1013.9
20260508044527 55 114 0.0 0.0 0.00 0.00 0.00 98 1013.9
20260508043024 56 114 0.0 0.0 0.00 0.00 0.00 98 1013.6
20260508041522 56 114 0.0 0.0 0.00 0.00 0.00 97 1013.5
20260508040020 56 114 0.0 0.0 0.00 0.00 0.00 98 1013.5
20260508034519 56 114 0.0 0.0 0.00 0.00 2.02 97 1013.5
20260508033020 56 114 0.0 0.0 0.00 0.00 2.02 97 1013.2
20260508031517 57 114 0.0 0.0 0.00 0.00 2.02 97 1013.3
20260508030016 57 5 0.0 0.0 0.00 0.00 2.02 97 1013.2
20260508024513 57 5 0.0 0.0 0.00 0.00 2.02 97 1013.1
20260508023015 57 5 0.0 0.0 0.00 0.00 2.02 97 1013.0
20260508021510 57 5 0.0 0.0 0.00 0.00 2.02 96 1012.7
20260508020007 57 5 0.9 0.0 0.00 0.00 2.02 96 1012.3
20260508014505 58 21 0.0 0.0 0.00 0.00 2.02 96 1012.2
20260508013005 58 95 0.0 0.0 0.00 0.00 2.02 96 1011.9
20260508011503 59 5 0.9 0.0 0.00 0.00 2.02 96 1011.6
20260508010005 59 355 0.0 0.0 0.00 0.00 2.02 96 1011.5
20260508004501 59 346 0.0 0.0 0.00 0.00 2.02 96 1011.1
20260508003001 59 5 0.9 0.0 0.00 0.00 2.02 95 1010.8
20260508001600 59 355 0.9 0.0 0.00 0.00 2.02 95 1010.7
20260508000059 59 32 1.7 0.0 0.00 0.00 2.00 94 1010.2
20260507234604 59 72 3.5 0.0 0.00 0.00 1.97 93 1009.1
20260507233055 60 355 3.5 0.0 0.00 0.00 1.92 90 1008.6
20260507231556 62 360 3.5 0.0 0.00 0.00 1.90 84 1009.4
20260507230055 63 157 3.5 0.0 0.00 0.00 1.90 83 1008.2
20260507224550 65 300 4.3 0.0 0.00 0.00 1.90 79 1008.2
20260507223054 73 268 3.5 0.0 0.00 0.00 1.90 71 1007.3
20260507221549 78 227 2.6 0.0 0.00 0.00 1.90 68 1006.6
20260507220045 77 234 3.5 0.0 0.00 0.00 1.90 69 1006.3
20260507214544 78 244 3.5 0.0 0.00 0.00 1.90 68 1006.3
20260507213043 77 186 4.3 0.0 0.00 0.00 1.90 69 1006.0
20260507211543 77 227 2.6 0.0 0.00 0.00 1.90 70 1006.2
20260507210042 77 214 1.7 0.0 0.00 0.00 1.90 67 1006.3
20260507204541 77 209 2.6 0.0 0.00 0.00 1.90 66 1006.1
20260507203047 79 198 1.7 0.0 0.00 0.00 1.90 66 1006.4
20260507201539 77 340 2.6 0.0 0.00 0.00 1.90 67 1006.5
20260507200045 78 126 1.7 0.0 0.00 0.00 1.90 65 1006.7
20260507194532 77 231 3.5 0.0 0.00 0.00 1.90 66 1006.9
20260507193033 76 71 0.9 0.0 0.00 0.00 1.90 70 1007.3
20260507191530 76 284 1.7 0.0 0.00 0.00 1.90 71 1007.6
20260507190027 75 262 1.7 0.0 0.00 0.00 1.90 73 1007.8
20260507184524 75 49 2.6 0.0 0.00 0.00 1.90 74 1007.7
20260507183035 74 309 1.7 0.0 0.00 0.00 1.90 76 1007.6
20260507181521 74 278 1.7 0.0 0.00 0.00 1.90 78 1007.5
20260507180033 74 313 0.9 0.0 0.00 0.00 1.90 79 1007.7
20260507174519 72 273 1.7 0.0 0.00 0.00 1.90 83 1007.9
20260507173012 70 226 0.9 0.0 0.00 0.00 1.90 88 1008.3
20260507171511 70 290 1.7 0.0 0.00 0.00 1.90 88 1008.3
20260507170010 70 245 1.7 0.0 0.00 0.00 1.90 89 1008.3